Regional Weather Roundup
Issued by NWS

Home | Current Version | Previous Version | Graphics & Text | Print | Product List | Glossary On
Versions: 1 2 3 4 5 6 7 8 9 10 11 12 13 14 15 16 17 18 19 20 21 22 23 24 25 26 27 28 29 30 31 32 33 34 35 36 37 38 39 40 41 42 43 44 45 46 47 48 49 50
086
ASUS43 KDMX 280101
RWRIA

WEATHER ROUNDUP FOR IOWA
NATIONAL WEATHER SERVICE DES MOINES IA
700 PM CST MON FEB 27 2017

NOTE: "FAIR" INDICATES FEW OR NO CLOUDS BELOW 12,000 FEET WITH NO
SIGNIFICANT WEATHER AND/OR OBSTRUCTIONS TO VISIBILITY.

* - THESE STATIONS ARE NOT NWS STATIONS...THUS NOT UNDER NWS
QUALITY CONTROL.  THEY ALSO DO NOT REPORT WEATHER SUCH
AS PRECIPITATION OR FOG.

IAZ001>003-012>014-020>022-031>034-043>046-280200-
   NORTHWEST IOWA

CITY           SKY/WX    TMP DP  RH WIND       PRES   REMARKS
CARROLL *      CLOUDY    41  34  75 S16       29.80R
CHEROKEE *     CLOUDY    37  32  84 CALM      29.78S
DENISON *      MOCLDY    45  30  57 SE14G21   29.75F
LE MARS *      CLOUDY    39  34  81 E6G13     29.77S WCI  35
SHELDON *      CLOUDY    37  36  93 SE7       29.76S WCI  32
SIOUX CITY     CLOUDY    41  32  70 E8        29.75S
SPENCER        CLOUDY    37  31  78 E6        29.80S WCI  32
STORM LAKE *   CLEAR     37  32  81 SE14      29.77F WCI  29
$$

IAZ055>058-069>071-079>083-090>094-280200-
   SOUTHWEST IOWA

CITY           SKY/WX    TMP DP  RH WIND       PRES   REMARKS
ATLANTIC *     CLOUDY    46  32  57 E5        29.78F
AUDUBON *      CLOUDY    45  34  65 E6        29.80F
CLARINDA *     CLOUDY    54  32  43 E3        29.79F
COUNCIL BLFS * CLOUDY    46  32  57 SE6       29.75F
CRESTON *      CLOUDY    46  32  57 SE10      29.80F
HARLAN  *      CLOUDY    45  34  65 E6        29.81F
LAMONI         CLOUDY    54  29  38 SE7       29.81F
RED OAK *      CLOUDY    50  32  50 SE6       29.77F
SHENANDOAH *   CLOUDY    50  34  53 SE7       29.76F
$$

IAZ047>049-059>061-072>074-084-280200-
   CENTRAL IOWA

CITY           SKY/WX    TMP DP  RH WIND       PRES   REMARKS
AMES           CLOUDY    48  33  56 SE9       29.86R
ANKENY *       MOCLDY    50  28  43 SE13      29.86R
BOONE *        CLOUDY    45  36  70 S9        29.84R
CHARITON *     CLOUDY    50  28  43 E6        29.84S
DES MOINES     CLOUDY    52  27  38 SE10      29.86R
GRINNELL*      CLOUDY    47  29  49 E8        29.88S
KNOXVILLE *    CLOUDY    52  25  35 SE9       29.85R
MARSHALLTOWN   CLOUDY    47  30  51 SE10      29.86F
NEWTON *       CLOUDY    48  28  46 SE8       29.86S
PELLA *        CLOUDY    49  28  43 SE8       29.88R
PERRY *        RAIN      46  31  57 SE7G25    29.84R
$$

IAZ004>006-015-016-023>025-035-036-280200-
   NORTH CENTRAL IOWA

CITY           SKY/WX    TMP DP  RH WIND       PRES   REMARKS
ALGONA *       CLOUDY    39  32  75 SE10      29.82S WCI  32
CLARION *      PTCLDY    39  34  81 SE16      29.83S WCI  30
ESTHERVILLE    CLOUDY    35  31  85 SE10      29.80F WCI  27
FORT DODGE *   MOCLDY    39  30  70 E10       29.81F WCI  32
MASON CITY     MOCLDY    40  31  70 SE12      29.85F WCI  33
FOREST CITY *    N/A     37  32  81 SE7       29.84S WCI  32
WEBSTER CITY * MOCLDY    41  32  70 SE13      29.80F
IOWA FALLS *   CLOUDY    44  33  65 SE12      29.87S
$$

IAZ007>011-017>019-026>030-037>042-050>054-066-280200-
   NORTHEAST IOWA

CITY           SKY/WX    TMP DP  RH WIND       PRES   REMARKS
CEDAR RAPIDS   CLOUDY    46  30  53 E6        29.92S
CHARLES CITY * CLOUDY    41  34  75 SE12      29.88F
CLINTON *      CLOUDY    47  35  63 SE9       29.98F
DECORAH *      CLOUDY    43  32  65 SE8       29.90F
DUBUQUE        CLOUDY    44  33  65 SE8       29.96F
MONTICELLO *   CLOUDY    45  34  65 E12       29.94S
OELWEIN *      CLOUDY    43  34  70 SE13      29.91F
WATERLOO       CLOUDY    46  30  53 SE9       29.90S
$$

IAZ064-065-067-068-078-280200-
   EAST CENTRAL IOWA

CITY           SKY/WX    TMP DP  RH WIND       PRES   REMARKS
DAVENPORT      CLOUDY    49  31  49 E10       29.96F
IOWA CITY      CLOUDY    50  32  50 SE6       29.94F
MUSCATINE *    CLOUDY    52  32  46 SE7       29.95S
QUAD CITIES    CLOUDY    46  31  55 E10       29.96F
$$

IAZ062-063-075>077-085>089-095>099-280200-
   SOUTHEAST IOWA

CITY           SKY/WX    TMP DP  RH WIND       PRES   REMARKS
BURLINGTON     CLOUDY    52  29  41 SE10      29.92F
FAIRFIELD *    CLOUDY    50  28  43 SE12      29.89F
FORT MADISON * PTCLDY    52  30  43 E7        29.93F
KEOKUK *       MOCLDY    54  32  43 SE9G16    29.91F
CENTERVILLE *  MOCLDY    52  28  40 SE10      29.86F
OTTUMWA        CLOUDY    52  25  35 SE13      29.87F
WASHINGTON *   CLOUDY    48  32  53 SE8       29.93S
$$

ABBREVIATIONS USED IN REMARKS
   TC - TEMPERATURES IN CELSIUS
  WCI - WIND CHILL INDEX
   HX - HEAT INDEX
  VSB - VISIBILITY
$$





USA.gov is the U.S. government's official web portal to all federal, state and local government web resources and services.